Temperature
23 24 26 26 26 26 24 22 22 23 23 23 22 22 22 23 23 23 22 22 22 22 21 21 20 20 20 19 19 18 18 18 18 18 18 17 17 17 17 17 17 16 16 16
24 25 25 26 26 26 26 25 24 24 23 23 23 24 23 22 22 22 22 22 22 22 21 21 20 20 20 19 19 19 18 18 18 17 17 17 17 17 16 16 16 16 16 16
21 23 24 24 25 25 25 25 24 23 23 22 22 22 22 22 22 22 22 22 22 22 22 21 20 20 20 19 19 18 18 18 17 17 17 17 17 16 16 16 16 16 15 15
19 22 23 22 23 24 24 23 23 23 22 22 22 23 23 23 22 22 22 22 22 22 21 21 20 20 19 19 19 18 18 18 17 17 17 17 16 16 16 16 15 15 15 15
18 20 21 23 23 24 23 22 22 22 22 22 23 22 21 22 23 23 23 23 22 22 21 20 20 19 19 19 18 18 18 17 17 17 17 16 16 16 15 15 15 15 15 15
18 21 21 21 22 24 22 20 21 21 20 21 22 19 20 22 22 23 23 23 22 21 21 20 20 19 19 18 18 18 17 17 17 16 16 16 16 15 15 15 15 15 14 14
18 19 19 20 21 22 21 19 20 21 21 21 20 20 21 21 22 22 22 22 21 21 20 20 19 19 19 18 18 17 17 17 16 16 16 16 15 15 15 14 14 14 14 14
16 18 18 19 20 19 18 19 20 20 21 20 20 21 21 21 21 21 21 21 21 20 20 19 19 19 18 18 17 17 16 16 16 16 16 15 15 15 14 14 14 14 14 13
16 16 17 19 19 19 20 20 20 20 20 20 20 20 20 20 20 20 20 20 19 19 19 19 18 18 18 17 17 16 16 16 15 15 15 15 14 14 14 13 13 13 13 13
15 16 17 19 19 19 20 20 20 20 20 20 20 20 20 19 19 20 19 19 19 19 18 18 17 17 17 17 16 16 15 15 15 15 14 14 14 14 13 13 13 13 12 12
15 15 17 18 19 19 19 19 19 19 20 20 19 19 19 19 18 19 18 18 18 18 18 17 17 17 16 16 16 16 15 15 15 14 14 14 13 13 13 13 12 12 12 12
14 16 15 17 18 19 19 19 19 19 18 18 19 18 18 18 18 18 18 17 17 17 17 17 16 16 16 16 16 15 15 15 14 14 14 13 13 13 12 12 12 12 12 12
17 17 17 17 18 18 18 18 18 18 18 18 18 18 18 17 17 17 17 17 17 17 16 16 16 16 15 15 15 15 15 14 14 14 13 13 12 12 12 12 11 11 11 11
17 17 17 17 17 17 17 17 17 17 17 17 17 17 17 17 17 16 16 16 16 16 16 15 15 15 15 15 15 14 14 14 13 13 13 12 12 12 11 11 11 11 10 10
17 17 16 17 17 17 17 17 17 16 16 16 16 16 16 16 16 16 16 15 15 15 15 15 15 14 14 14 14 14 14 13 13 13 12 12 12 11 11 11 11 10 10 10
16 16 16 16 16 16 16 16 16 16 16 16 16 16 16 16 15 15 15 15 15 15 14 14 14 14 14 14 13 13 13 12 12 12 12 11 11 11 11 10 10 10 10 9
16 16 15 15 15 15 15 15 15 15 15 15 15 15 15 15 14 14 14 14 14 14 14 14 13 13 13 13 13 12 12 12 12 11 11 11 11 11 10 10 10 10 9 9
15 15 15 15 15 15 14 14 15 15 15 15 15 14 14 14 14 14 14 13 13 13 13 13 12 12 12 12 12 12 11 11 11 11 11 11 11 10 10 10 10 9 9 9
15 15 15 14 14 14 14 14 14 14 14 14 14 14 14 13 13 13 13 13 12 12 12 12 12 12 11 11 11 11 11 11 11 11 11 11 10 10 10 10 9 9 9 9
14 14 14 14 14 14 14 14 14 14 13 13 13 13 13 13 12 12 12 12 12 12 12 12 11 11 11 11 11 10 10 10 10 10 10 10 10 10 10 9 9 9 9 8
13 13 13 13 13 13 13 13 13 13 13 13 13 13 12 12 12 11 11 11 11 11 11 11 11 11 11 10 10 10 10 10 10 10 10 10 10 10 9 9 9 9 9 8
12 12 12 12 12 12 12 12 12 12 12 12 12 12 12 12 11 11 11 11 11 11 10 10 10 10 10 10 10 10 10 10 10 10 10 10 10 9 9 9 9 9 9 8
11 11 11 11 11 11 11 12 12 12 12 11 11 11 11 11 11 11 11 10 10 10 10 10 10 10 10 10 10 10 10 10 10 10 10 9 9 9 9 9 9 9 8 8
10 10 10 11 11 11 11 11 11 11 11 11 11 11 11 11 11 10 10 10 10 10 10 10 9 9 9 9 9 9 9 9 9 9 9 9 9 9 9 9 8 8 8 8
10 10 10 10 10 10 10 10 10 10 11 10 10 10 10 11 11 10 10 10 10 10 9 9 9 9 9 9 9 9 9 9 9 9 9 9 9 9 8 8 8 8 8 8
9 9 10 10 10 10 10 10 10 10 10 10 10 10 10 10 10 10 10 10 10 10 9 9 9 9 9 9 9 9 9 9 9 9 8 8 8 8 8 8 8 8 8 8
9 9 9 9 9 9 10 10 10 10 10 10 10 10 10 10 10 10 10 10 9 9 9 9 9 9 9 9 9 9 9 9 8 8 8 8 8 8 8 8 8 8 8 8
Wind_Speed
6 5 2 2 5 4 5 9 9 9 10 10 11 12 12 12 11 9 9 9 9 8 7 7 7 7 7 7 7 7 7 6 5 5 4 4 4 3 3 3 4 3 3 2
1 1 2 3 6 6 4 5 6 6 6 7 8 8 10 11 12 11 11 10 10 9 9 8 8 8 8 7 7 7 7 6 5 5 5 4 4 3 3 3 3 3 3 3
1 3 4 4 5 2 2 2 5 6 7 6 8 9 10 11 11 11 10 10 10 10 10 9 8 8 8 7 7 7 7 7 6 6 6 4 4 4 3 3 3 3 3 3
2 4 3 7 3 1 2 4 2 3 4 8 10 8 6 8 10 9 9 10 9 9 8 7 6 7 7 7 7 7 7 6 6 6 5 5 4 4 3 3 4 3 3 3
4 2 4 5 5 3 1 4 6 2 4 7 10 10 6 3 7 9 10 9 8 8 8 8 9 9 9 7 7 8 7 6 6 6 6 5 5 4 4 4 3 3 2 2
4 3 4 5 8 5 5 3 8 3 4 5 8 6 2 1 5 7 7 8 8 8 8 9 9 10 11 8 7 7 7 7 6 7 7 6 5 4 3 3 3 3 3 2
4 3 4 5 8 5 5 3 5 3 4 6 5 4 3 3 5 7 8 8 9 9 8 8 8 10 10 8 7 6 6 7 6 6 6 6 4 4 4 4 4 3 2 2
5 4 6 6 5 4 4 2 3 6 6 7 7 7 6 7 8 9 9 8 8 8 7 6 8 10 9 7 6 6 7 7 6 6 6 6 5 4 4 4 4 3 2 2
6 5 3 2 4 3 4 5 4 5 5 7 8 7 6 6 7 8 8 8 7 9 8 6 6 8 9 6 7 7 7 7 6 5 5 5 5 5 4 3 3 2 2 2
4 2 2 4 5 5 5 5 5 6 5 7 7 6 6 6 6 7 6 6 6 8 8 6 5 6 7 7 7 7 7 7 6 6 5 5 4 4 4 3 3 2 2 2
3 1 4 5 5 4 6 7 8 8 7 7 7 6 5 5 5 5 6 5 6 7 7 6 6 5 6 7 7 8 7 6 6 6 6 5 4 3 3 2 2 3 3 3
3 4 3 1 1 4 7 6 7 7 6 4 4 5 5 5 4 5 5 6 7 7 7 6 6 6 5 6 7 7 6 5 5 5 5 5 5 4 6 4 2 2 3 3
3 2 3 2 4 6 6 5 6 6 4 3 3 5 6 5 5 5 5 6 6 6 6 6 6 5 4 6 7 7 6 5 4 4 5 4 4 4 3 3 6 6 4 4
3 4 3 2 2 4 5 5 5 5 4 3 4 5 6 5 5 5 4 4 5 5 5 5 5 4 3 5 6 6 6 6 5 5 5 4 4 3 3 3 2 2 3 3
2 3 3 2 3 3 3 4 4 3 3 4 4 4 5 5 6 5 4 5 5 5 4 4 4 3 3 4 6 6 5 5 5 5 4 4 4 3 3 3 3 2 1 1
2 3 3 3 3 3 3 3 3 1 1 2 3 3 4 5 5 4 4 5 5 4 4 4 4 3 4 5 5 5 4 7 6 5 5 4 4 4 3 3 3 2 2 1
3 2 2 1 1 0 0 1 2 2 2 2 3 4 5 6 5 4 3 3 4 3 3 3 3 3 4 5 5 4 4 5 7 5 4 4 4 4 4 3 3 3 2 2
3 3 2 2 2 1 1 1 2 2 2 2 3 4 5 5 5 4 3 4 4 3 2 2 3 4 4 4 4 4 4 4 4 4 4 4 4 4 4 4 4 4 2 2
1 2 1 0 1 2 3 2 2 2 3 4 5 4 4 4 4 4 4 5 4 2 1 2 6 5 4 4 4 4 4 4 4 3 4 5 4 3 4 4 4 4 3 3
3 2 1 1 0 1 2 2 2 3 3 4 5 4 4 3 3 4 5 4 3 3 4 5 5 4 4 3 4 4 4 5 4 4 4 3 3 3 4 4 4 4 3 3
3 2 2 1 1 0 1 2 4 4 4 4 5 4 4 4 4 4 4 3 1 3 4 6 4 3 3 3 4 3 4 4 4 4 4 3 3 3 3 3 3 3 4 3
2 2 1 2 2 2 1 2 3 4 4 4 5 5 5 4 5 4 3 2 3 5 4 3 3 4 4 4 3 3 3 4 4 3 3 3 3 3 3 3 3 3 3 4
2 1 1 1 2 2 2 3 3 4 5 5 5 5 5 4 4 4 3 1 3 5 4 3 4 5 5 3 3 3 3 3 3 3 3 2 3 3 3 3 3 3 3 3
1 1 1 1 2 4 3 2 3 4 4 4 4 4 5 4 3 2 3 5 6 6 4 4 5 5 5 3 3 3 3 2 2 2 2 2 2 2 2 3 3 3 3 4
1 1 2 3 3 3 3 3 4 4 5 4 4 4 4 4 4 3 4 4 6 5 3 3 4 4 3 3 3 3 3 2 2 2 2 2 2 2 2 2 2 3 3 3
1 1 1 2 2 2 2 3 3 3 4 4 3 3 3 4 4 4 4 4 5 5 4 3 3 4 3 3 3 3 2 3 3 2 2 2 2 1 1 1 1 1 2 2
2 2 2 3 3 3 3 3 4 3 3 4 4 3 3 4 4 4 4 4 4 4 4 3 3 3 3 3 3 3 3 3 3 3 3 2 2 1 1 1 1 1 0 0
Wind_Direction
193 203 188 274 291 262 195 185 186 215 202 206 190 172 168 165 163 159 163 161 161 159 162 162 159 155 149 149 150 150 147 151 158 152 146 141 134 130 127 126 126 128 121 109
5 341 16 325 308 302 268 213 198 185 216 213 183 157 155 162 164 168 173 169 163 161 166 167 164 156 150 148 149 143 142 145 147 134 130 130 129 123 117 117 115 110 112 105
302 345 34 308 278 267 288 290 182 192 219 172 147 153 159 163 165 172 176 168 168 169 168 170 166 159 158 155 146 142 147 146 142 138 135 133 129 121 121 120 112 111 111 102
105 67 216 247 276 166 116 20 18 159 163 156 152 142 129 142 157 161 166 168 170 164 160 158 156 151 146 141 140 141 144 144 144 140 138 135 130 125 119 111 114 114 108 109
110 148 272 304 335 345 107 20 0 76 117 121 123 91 65 105 148 155 160 165 164 159 155 150 150 141 130 132 137 140 144 145 147 145 141 137 132 123 118 113 110 116 111 105
115 140 214 267 303 306 106 27 339 39 111 122 110 110 171 188 133 127 130 137 144 144 141 143 148 140 132 137 142 148 149 149 148 145 144 142 136 129 122 120 119 110 95 90
147 178 256 283 313 18 109 211 315 48 82 96 100 144 171 125 113 116 117 124 130 132 139 145 141 133 132 138 150 151 141 138 136 136 137 133 127 127 125 119 111 102 92 60
148 173 247 311 26 83 168 194 48 59 70 84 90 86 79 92 103 111 113 118 124 125 123 130 135 133 134 141 140 130 126 126 128 132 135 131 127 124 123 125 121 110 91 61
170 193 232 14 94 123 133 99 72 67 71 92 91 85 82 83 99 108 115 119 118 121 120 120 129 135 138 145 134 127 124 124 123 117 112 119 124 126 120 118 124 124 112 107
97 91 73 57 64 58 77 89 79 79 82 91 96 97 98 93 99 107 108 112 116 120 123 122 120 126 135 136 130 126 127 128 129 122 112 102 101 114 121 128 136 141 138 142
87 60 46 30 44 56 61 65 62 63 70 81 97 104 102 100 108 115 115 111 116 121 124 127 123 118 125 130 130 128 127 127 125 119 121 109 92 81 116 140 170 172 179 174
188 229 169 208 9 69 70 64 67 68 64 79 109 114 106 106 113 114 118 117 118 117 121 127 126 121 125 130 130 131 133 134 133 129 125 124 119 88 47 46 47 118 145 152
168 193 144 110 64 69 72 63 63 69 80 92 99 111 112 112 108 108 111 116 129 132 133 134 132 134 138 142 141 142 145 147 143 139 138 139 140 138 120 45 46 59 81 114
92 92 86 65 77 70 74 70 63 62 66 96 114 109 109 107 113 114 121 123 125 124 125 129 133 143 154 143 141 143 144 146 144 146 147 150 154 153 150 145 124 43 36 74
80 110 146 128 84 66 70 76 67 55 69 80 99 113 118 121 131 132 131 124 115 117 128 134 138 154 152 137 137 140 142 145 146 145 147 148 148 150 151 149 149 140 92 34
111 84 87 80 67 50 56 80 89 80 84 99 106 121 135 136 133 127 130 134 134 144 158 156 163 172 149 140 138 137 143 146 146 149 148 145 146 151 156 158 159 160 164 165
109 95 87 85 85 84 51 134 141 139 123 119 138 130 124 123 121 123 133 133 136 141 148 156 164 155 142 140 142 146 144 147 144 145 149 153 154 159 161 157 155 158 175 176
145 159 168 184 186 177 158 140 136 138 148 141 129 121 123 137 147 153 150 131 114 103 105 136 138 131 131 131 135 139 141 139 143 145 145 145 149 157 159 161 166 163 161 157
66 82 70 52 196 183 177 176 177 163 150 138 133 136 143 150 155 149 138 131 134 144 174 129 122 118 118 116 117 128 129 128 128 130 131 134 134 141 150 160 170 174 171 165
33 44 35 14 283 151 162 167 146 135 145 137 129 124 127 137 139 138 133 135 158 172 158 135 123 116 116 116 114 127 135 140 140 138 134 138 142 149 159 168 177 182 180 181
21 21 33 27 355 28 119 135 136 139 138 131 135 144 147 143 135 136 132 131 116 114 124 126 126 126 119 118 118 128 133 140 143 147 150 153 154 158 163 164 173 183 186 189
4 9 17 37 63 58 58 97 122 125 118 117 126 132 130 126 124 121 121 143 138 122 120 121 126 125 119 117 122 131 137 143 150 154 157 160 161 163 167 167 174 184 188 192
318 310 338 47 103 107 81 83 101 115 118 123 130 132 133 135 134 134 132 128 122 119 116 123 124 118 111 108 110 117 121 124 129 140 152 161 162 166 173 178 181 182 190 197
338 51 96 87 95 96 90 85 92 105 111 117 125 130 131 123 106 113 131 132 124 117 110 119 120 115 111 104 99 99 111 122 127 128 131 136 141 154 170 178 185 190 195 199
357 58 81 85 90 101 112 101 92 94 99 100 103 113 124 133 136 138 127 128 125 114 101 111 119 113 103 95 91 96 110 122 126 128 132 139 148 157 172 181 187 195 200 206
55 79 101 117 125 126 120 107 101 101 103 103 101 103 107 108 113 116 118 124 124 119 110 102 101 103 97 95 91 97 105 106 103 111 120 125 132 146 162 186 200 186 196 212
63 73 77 78 75 77 88 100 104 100 104 116 117 119 119 116 115 118 119 118 118 116 113 112 111 110 101 91 83 85 91 88 88 91 88 89 89 90 93 114 130 118 110 107
Height
1495 1492 1490 1492 1492 1492 1500 1507 1516 1511 1508 1501 1498 1498 1499 1501 1504 1508 1511 1512 1515 1519 1521 1523 1526 1527 1529 1531 1532 1533 1534 1535 1536 1537 1538 1538 1539 1539 1539 1540 1540 1540 1541 1540
1494 1488 1488 1491 1489 1489 1491 1493 1497 1498 1500 1491 1493 1496 1498 1501 1503 1506 1509 1511 1514 1517 1519 1522 1524 1526 1527 1529 1531 1532 1533 1533 1534 1536 1536 1537 1537 1538 1538 1538 1539 1539 1539 1539
1506 1495 1493 1503 1493 1491 1492 1488 1490 1498 1495 1489 1493 1495 1496 1499 1502 1504 1507 1510 1513 1515 1518 1520 1522 1524 1526 1527 1529 1530 1531 1532 1532 1533 1535 1536 1536 1537 1537 1537 1537 1537 1537 1537
1509 1504 1515 1504 1486 1485 1487 1488 1485 1485 1486 1486 1489 1493 1496 1498 1501 1504 1507 1510 1512 1515 1517 1519 1522 1523 1525 1526 1527 1528 1530 1531 1532 1533 1534 1535 1535 1535 1536 1536 1536 1536 1536 1536
1515 1516 1509 1495 1487 1487 1490 1495 1489 1487 1486 1488 1490 1493 1498 1500 1501 1502 1505 1507 1510 1513 1516 1518 1520 1522 1523 1524 1526 1527 1528 1530 1531 1532 1533 1534 1534 1534 1535 1535 1535 1535 1535 1534
1512 1514 1517 1502 1487 1483 1487 1501 1492 1489 1488 1488 1489 1499 1502 1500 1500 1502 1503 1506 1508 1512 1515 1517 1519 1521 1522 1523 1525 1526 1527 1528 1530 1531 1532 1533 1533 1534 1534 1535 1534 1534 1533 1533
1510 1513 1509 1493 1486 1483 1502 1506 1494 1490 1489 1489 1491 1496 1499 1499 1500 1501 1503 1505 1508 1511 1513 1515 1517 1519 1520 1521 1523 1525 1526 1528 1529 1530 1531 1532 1533 1533 1534 1534 1533 1533 1532 1532
1511 1516 1513 1492 1488 1494 1499 1496 1494 1491 1491 1492 1493 1495 1497 1498 1499 1501 1503 1506 1509 1510 1512 1515 1516 1517 1519 1521 1522 1524 1526 1527 1528 1529 1530 1531 1532 1532 1533 1532 1532 1532 1532 1531
1502 1506 1497 1492 1492 1494 1494 1495 1494 1493 1494 1493 1494 1496 1498 1499 1501 1503 1504 1507 1509 1510 1512 1514 1516 1517 1518 1520 1521 1523 1524 1525 1527 1528 1529 1529 1530 1531 1531 1531 1531 1531 1530 1530
1498 1498 1495 1494 1494 1494 1494 1495 1495 1495 1495 1494 1495 1497 1499 1501 1502 1503 1506 1507 1509 1511 1512 1513 1515 1517 1518 1519 1520 1521 1523 1524 1525 1526 1527 1528 1528 1529 1529 1529 1529 1529 1529 1528
1499 1498 1497 1496 1496 1496 1496 1496 1496 1496 1496 1496 1498 1499 1500 1501 1503 1505 1506 1508 1510 1511 1512 1513 1515 1516 1517 1518 1520 1520 1521 1522 1524 1525 1525 1526 1527 1527 1528 1528 1528 1528 1527 1527
1501 1498 1498 1498 1497 1497 1497 1497 1498 1498 1499 1499 1500 1500 1500 1502 1503 1505 1506 1508 1509 1510 1511 1513 1514 1515 1516 1517 1518 1519 1519 1521 1522 1522 1523 1524 1525 1525 1526 1526 1526 1526 1525 1525
1497 1497 1497 1498 1498 1497 1497 1498 1499 1499 1500 1500 1501 1501 1501 1502 1504 1505 1507 1507 1508 1509 1510 1511 1512 1513 1514 1515 1516 1517 1518 1519 1520 1520 1521 1522 1523 1523 1523 1524 1524 1523 1523 1523
1497 1497 1498 1498 1498 1498 1498 1499 1499 1499 1500 1501 1501 1502 1502 1502 1503 1505 1506 1507 1508 1509 1509 1510 1511 1512 1513 1513 1514 1515 1516 1517 1518 1519 1519 1520 1521 1521 1522 1522 1521 1521 1521 1521
1496 1497 1497 1497 1497 1497 1498 1499 1499 1499 1500 1500 1501 1501 1502 1502 1503 1504 1505 1506 1507 1507 1508 1508 1509 1510 1511 1511 1512 1513 1514 1515 1516 1517 1518 1518 1519 1520 1520 1520 1520 1519 1519 1519
1495 1495 1497 1497 1497 1497 1498 1498 1498 1498 1499 1499 1499 1500 1500 1501 1502 1503 1504 1504 1505 1505 1506 1506 1507 1508 1509 1510 1510 1511 1512 1513 1514 1515 1516 1516 1517 1517 1518 1518 1518 1518 1517 1517
1493 1494 1495 1496 1496 1496 1497 1497 1497 1497 1498 1498 1498 1498 1499 1499 1500 1501 1502 1502 1503 1503 1504 1504 1505 1506 1507 1508 1509 1509 1511 1512 1513 1514 1514 1515 1515 1516 1516 1516 1516 1516 1516 1516
1492 1493 1493 1494 1494 1494 1495 1495 1495 1496 1496 1496 1497 1497 1497 1497 1498 1499 1500 1500 1501 1501 1502 1502 1503 1504 1505 1506 1507 1508 1509 1510 1512 1513 1513 1514 1515 1515 1515 1515 1516 1516 1516 1516
1490 1490 1491 1492 1492 1492 1492 1493 1493 1494 1494 1495 1495 1495 1496 1496 1496 1497 1498 1498 1499 1499 1500 1501 1502 1503 1504 1505 1506 1507 1508 1509 1511 1512 1513 1514 1514 1515 1515 1515 1515 1516 1516 1516
1487 1488 1488 1489 1489 1489 1490 1490 1491 1492 1492 1493 1493 1494 1494 1494 1495 1495 1496 1497 1497 1497 1499 1500 1501 1501 1502 1504 1505 1506 1507 1509 1510 1511 1512 1513 1514 1514 1514 1515 1515 1515 1516 1516
1485 1485 1485 1485 1486 1487 1488 1489 1489 1490 1491 1491 1492 1492 1493 1493 1494 1495 1495 1496 1496 1496 1497 1499 1500 1500 1502 1503 1505 1506 1508 1509 1510 1511 1512 1513 1513 1514 1514 1514 1515 1515 1515 1515
1483 1483 1483 1484 1484 1485 1486 1487 1488 1488 1489 1490 1490 1491 1492 1493 1493 1494 1495 1496 1496 1496 1497 1498 1499 1500 1501 1503 1504 1506 1508 1509 1510 1511 1511 1512 1513 1513 1513 1514 1514 1515 1515 1515
1482 1482 1482 1483 1483 1484 1485 1485 1486 1487 1488 1488 1489 1490 1491 1492 1493 1494 1495 1496 1496 1497 1497 1498 1499 1501 1502 1503 1505 1506 1508 1509 1510 1510 1511 1512 1512 1512 1513 1514 1514 1514 1514 1514
1480 1481 1481 1482 1482 1483 1483 1484 1485 1486 1487 1488 1489 1490 1492 1493 1494 1495 1496 1496 1497 1498 1499 1500 1501 1502 1503 1504 1506 1507 1508 1509 1510 1510 1511 1511 1512 1512 1513 1513 1513 1514 1514 1514
1479 1479 1480 1481 1481 1482 1483 1484 1485 1486 1487 1488 1489 1491 1492 1494 1495 1496 1497 1498 1498 1499 1500 1501 1502 1503 1504 1505 1506 1507 1508 1509 1510 1511 1511 1512 1512 1512 1513 1513 1513 1513 1513 1513
1480 1480 1480 1481 1482 1483 1484 1484 1485 1486 1487 1489 1490 1492 1493 1495 1496 1497 1498 1499 1500 1501 1502 1503 1504 1505 1506 1507 1508 1509 1510 1510 1511 1511 1512 1512 1512 1512 1513 1512 1512 1512 1512 1512
1481 1482 1482 1483 1483 1484 1485 1486 1487 1488 1489 1490 1491 1493 1494 1496 1497 1498 1499 1500 1501 1502 1504 1505 1506 1507 1508 1509 1510 1510 1511 1511 1512 1512 1512 1512 1512 1512 1512 1511 1511 1511 1511 1510